Temperature
16 14 13 13 12 14 15 14 13 12 12 9 9 10 12 13 11 10 11 14 15 17 18 16 15 14 13 13 12 11 10 10 8 8 7 6 6 6 5 4 4 3 3 2
14 13 13 14 13 13 14 13 12 12 11 10 9 10 12 11 11 12 12 14 17 18 18 17 16 15 14 14 13 13 12 11 10 9 8 7 6 5 5 4 3 3 3 2
15 15 15 14 14 14 14 13 13 13 13 11 10 11 11 11 11 11 13 15 17 18 19 19 18 17 16 15 15 15 14 13 12 10 8 6 5 5 5 4 4 4 3 2
14 13 15 15 14 14 12 13 13 13 12 10 11 11 13 12 11 11 13 15 19 20 20 20 19 18 17 17 17 16 15 14 13 11 9 8 7 7 7 6 4 3 2 2
14 15 14 14 14 13 13 13 13 12 11 10 9 10 12 11 12 13 14 18 20 21 21 21 20 19 19 18 17 16 15 14 13 12 11 9 8 7 6 5 4 3 3 2
13 14 14 13 13 13 13 12 10 8 8 10 10 9 11 11 13 14 14 18 20 21 21 21 21 20 19 18 18 17 16 15 14 13 12 10 9 8 6 5 4 3 3 2
13 13 14 14 13 13 13 12 11 12 11 11 10 9 11 13 12 12 13 17 18 19 20 21 21 20 20 19 18 18 17 16 15 14 13 12 10 8 7 6 4 3 3 2
13 13 14 13 13 13 12 12 12 13 11 10 10 9 12 13 13 14 15 16 19 20 20 21 21 20 20 19 19 18 17 17 16 15 14 13 11 9 7 6 5 4 3 2
13 13 13 13 12 12 11 10 11 10 10 9 9 10 11 13 14 14 15 17 19 20 20 20 20 20 20 19 19 18 17 17 16 15 14 13 12 10 8 7 5 4 3 2
13 13 13 12 12 12 12 10 8 10 11 10 10 10 12 14 15 14 13 16 18 19 20 20 20 20 19 19 18 18 17 17 16 15 14 13 12 11 9 7 5 4 3 2
12 13 12 12 11 11 10 10 10 8 8 9 9 11 12 13 13 13 13 16 18 19 19 19 19 19 19 18 18 18 17 17 16 15 14 13 12 11 9 7 5 4 3 2
11 9 10 11 11 10 10 10 9 10 10 7 7 11 13 12 12 12 13 16 18 18 18 17 17 17 17 18 18 17 17 17 16 15 14 13 12 10 9 7 5 4 2 1
10 10 11 12 12 10 10 9 8 9 9 7 7 12 13 12 12 15 15 16 16 16 16 16 16 16 16 17 17 17 16 16 15 15 14 13 12 10 9 8 6 4 2 1
10 9 11 12 12 12 11 10 8 9 9 8 9 12 14 14 14 15 15 15 15 15 15 15 15 16 16 16 16 16 16 15 15 14 14 13 12 11 9 7 5 4 2 1
9 9 8 9 10 9 9 10 10 9 10 10 12 13 14 15 14 14 14 14 13 14 14 15 15 15 15 15 15 15 15 15 14 14 14 13 12 10 9 7 5 3 2 1
7 8 8 8 9 8 8 9 10 10 10 10 11 12 13 13 13 12 12 12 12 13 14 14 14 14 15 15 15 15 15 14 14 14 13 13 11 10 8 6 4 3 1 1
6 6 7 7 9 8 8 9 10 10 9 10 11 12 11 11 10 11 12 12 13 13 13 13 13 14 14 14 14 14 14 14 13 13 13 12 11 10 8 6 4 2 1 0
6 5 6 5 8 8 11 11 10 10 10 10 10 10 10 10 11 12 12 12 12 12 12 12 13 13 13 13 13 13 13 13 13 12 12 12 10 9 7 5 3 2 1 0
5 6 6 5 5 7 8 9 10 9 9 10 10 10 10 11 10 12 12 11 11 11 11 11 11 11 12 12 12 12 12 12 12 12 11 10 9 8 6 5 3 2 1 0
4 5 5 4 5 6 9 10 11 10 9 11 11 10 10 9 7 9 11 10 10 10 10 10 11 10 11 11 11 11 11 11 11 10 9 9 8 7 6 4 3 1 1 0
4 4 4 4 4 7 8 9 10 9 10 11 11 10 9 8 8 9 9 9 9 9 10 10 10 10 10 10 10 10 10 10 9 9 9 8 8 6 5 3 1 0 -0 -1
6 5 3 3 4 6 8 8 9 10 11 11 10 10 9 9 9 9 9 9 9 9 9 9 9 9 9 9 9 9 9 8 8 8 8 8 7 5 4 2 0 -1 -1 -1
5 6 6 5 8 9 10 10 11 11 10 10 9 9 9 8 8 8 8 8 8 8 8 8 8 8 8 8 7 7 7 7 7 8 7 7 5 4 3 1 -1 -2 -2 -2
6 6 5 5 6 8 9 10 10 10 10 9 9 8 8 7 7 7 7 7 7 7 7 7 7 7 7 7 7 6 6 6 7 7 7 6 4 3 1 -0 -1 -2 -2 -2
6 6 5 6 7 8 8 9 9 9 8 8 8 7 7 6 6 6 6 6 6 6 6 6 6 6 6 6 6 6 5 5 6 6 6 5 3 2 0 -1 -1 -2 -2 -2
6 6 6 7 8 7 8 8 8 7 7 7 6 6 6 6 5 5 5 5 5 5 5 5 5 5 5 5 5 5 4 4 5 5 5 4 2 1 -1 -2 -3 -3 -4 -3
Wind_Speed
3 2 5 9 9 6 3 5 9 9 4 7 12 20 25 16 11 16 17 15 16 19 15 11 14 15 13 15 17 18 19 16 13 8 7 6 7 6 7 16 19 20 20 19
4 6 9 4 4 4 5 6 8 8 3 6 9 17 20 15 12 16 17 17 18 16 11 11 13 15 18 19 19 19 21 19 18 14 9 5 5 5 7 13 17 20 20 20
7 6 2 4 4 5 5 7 7 7 5 4 8 12 10 8 6 8 11 12 12 16 16 13 14 17 18 20 23 21 22 21 19 14 8 4 3 2 5 7 9 17 20 20
7 5 3 4 5 6 7 7 6 4 4 6 3 8 12 8 9 10 12 12 15 15 15 13 13 15 20 23 19 20 20 20 18 17 16 15 13 13 12 8 9 12 19 19
7 4 5 7 7 8 7 1 0 2 3 5 3 6 12 8 10 12 12 13 15 14 15 16 16 18 18 17 16 17 17 19 19 20 21 20 17 13 6 6 9 10 12 17
7 3 5 6 0 2 3 4 4 5 3 5 5 6 10 7 10 10 9 10 11 12 12 14 12 11 12 12 14 15 18 20 19 21 21 22 21 15 10 10 11 10 8 9
7 4 2 3 3 3 3 4 5 6 3 6 3 5 11 15 11 11 14 14 11 10 10 11 12 13 13 14 16 16 19 21 20 22 23 23 22 19 19 16 14 12 9 9
4 7 4 4 6 5 4 6 5 4 6 7 4 8 10 14 11 10 12 13 12 12 10 11 12 12 13 14 15 16 20 21 20 22 23 21 19 16 15 16 13 14 12 12
5 7 1 1 2 8 5 5 4 3 4 6 8 9 12 12 10 8 9 10 12 13 12 11 10 10 11 12 15 17 19 19 20 21 20 19 20 19 17 15 14 11 10 10
7 6 4 1 2 0 3 6 5 2 4 7 8 7 6 11 13 12 12 12 12 12 11 11 10 9 9 10 10 12 16 18 18 18 19 18 19 20 17 14 15 14 13 11
6 5 5 3 6 7 5 4 4 3 4 4 6 8 8 11 13 13 15 14 13 13 13 12 10 8 8 9 10 12 14 15 16 18 18 18 18 18 16 16 17 15 14 14
4 4 5 8 3 4 7 8 8 4 6 6 5 11 11 12 13 12 14 14 14 14 13 12 11 9 7 8 9 11 13 15 16 15 16 18 16 16 18 19 17 16 15 14
5 4 4 8 3 1 2 5 6 4 2 5 6 12 7 10 13 14 14 15 15 15 14 12 10 9 8 8 9 10 12 14 13 13 15 16 17 18 20 20 18 16 15 14
6 5 7 10 9 4 6 6 7 7 6 8 14 22 24 23 23 22 18 15 14 13 12 11 10 9 8 8 8 10 12 12 12 13 15 18 20 21 20 18 17 17 16 15
4 5 8 10 11 8 9 12 11 14 14 15 23 24 29 25 20 17 14 14 14 13 12 11 10 9 8 8 8 9 11 11 12 14 17 20 18 17 16 16 16 16 16 16
3 5 5 7 10 11 11 15 20 20 17 17 23 26 23 15 11 11 12 12 12 13 12 12 11 11 10 9 9 9 11 11 12 15 18 16 14 15 16 16 15 15 15 14
6 7 5 8 6 6 10 15 18 11 10 11 14 14 10 13 15 13 11 10 10 12 12 12 12 11 11 11 9 10 10 9 12 15 15 15 15 16 17 16 16 16 16 14
8 6 4 5 1 11 10 6 10 12 13 13 11 11 12 12 13 10 7 6 10 12 11 12 11 12 11 10 9 9 8 8 11 13 15 14 15 16 15 15 17 17 14 14
8 8 5 4 6 11 9 10 8 8 9 7 7 7 8 9 8 6 4 6 9 11 13 13 12 12 11 13 10 8 8 8 10 14 14 14 14 15 15 17 17 16 14 14
3 5 5 5 6 9 10 6 0 2 7 4 2 5 8 9 11 10 11 13 13 13 12 12 12 12 12 13 8 8 10 9 13 14 13 12 14 16 17 18 16 13 13 14
3 4 7 8 9 11 10 5 1 4 7 2 4 8 9 7 9 12 14 14 13 13 13 12 11 11 12 12 9 10 11 13 13 11 10 11 13 15 15 14 13 12 13 12
8 6 8 7 7 11 7 4 6 8 6 8 10 10 11 12 13 12 13 13 13 13 12 12 11 12 12 10 9 11 14 13 10 9 10 11 12 12 12 12 11 11 13 13
9 9 7 11 11 7 4 8 8 7 11 12 11 12 12 13 13 13 12 13 13 13 12 11 11 13 13 11 8 12 15 12 10 9 10 10 10 10 10 11 12 11 12 11
7 7 8 10 13 13 12 11 12 14 15 12 12 12 11 12 12 12 12 11 12 12 12 11 12 13 15 13 11 12 14 12 10 11 10 8 8 9 10 10 11 12 13 12
8 5 8 15 15 13 11 12 12 12 11 12 11 9 8 8 10 10 11 12 11 11 10 10 11 13 15 15 14 13 12 10 11 11 9 7 8 9 10 11 12 13 13 15
11 15 17 22 17 15 16 12 12 13 11 9 7 6 7 7 9 10 10 11 11 12 12 12 13 13 15 15 16 14 11 10 10 10 8 7 7 8 8 9 9 18 18 21
Wind_Direction
42 70 235 229 212 221 232 242 265 265 220 198 243 261 270 267 233 246 248 243 240 242 242 212 207 205 202 202 203 205 204 200 189 183 188 191 207 206 206 211 209 207 208 207
19 265 243 220 184 203 229 263 272 283 218 213 276 276 271 264 241 237 240 238 237 240 240 214 204 201 205 206 207 206 207 201 198 199 187 178 177 194 206 208 208 208 207 206
221 249 182 165 187 212 240 229 251 272 319 273 308 296 287 291 252 254 241 238 236 233 238 224 207 207 207 210 209 208 207 204 201 192 172 154 141 152 182 201 207 207 205 205
250 262 202 215 233 197 261 243 234 276 317 297 352 301 291 288 298 269 251 237 239 236 234 228 212 210 211 215 210 209 205 204 199 189 191 191 199 207 204 195 197 198 202 203
267 228 203 226 236 191 229 356 193 295 248 297 253 236 285 312 287 273 258 241 238 234 227 229 220 217 217 212 205 206 203 204 199 197 201 203 212 213 185 180 187 195 200 203
250 251 208 214 97 162 139 60 51 54 72 289 239 198 284 268 248 276 289 272 255 246 234 235 230 218 216 203 201 199 202 207 201 201 205 208 212 203 187 190 194 198 199 203
313 295 240 151 119 43 95 68 344 335 337 260 198 213 254 259 253 254 276 288 291 274 250 241 231 219 216 205 203 200 202 209 204 204 208 212 213 207 205 201 201 197 199 205
304 302 235 197 194 187 179 158 183 261 269 289 273 240 257 270 281 270 269 279 289 281 263 249 239 226 219 210 202 200 206 211 205 206 212 213 212 211 212 207 200 201 204 206
215 272 310 162 193 153 162 204 179 174 282 281 275 288 298 293 317 317 303 297 291 288 283 269 261 241 227 214 207 205 208 211 208 209 211 212 211 212 212 205 202 202 202 198
182 261 297 14 87 21 172 159 112 153 279 285 288 280 261 295 304 315 317 312 304 303 294 283 271 255 238 224 213 204 210 214 213 209 210 213 212 213 211 203 202 203 201 196
180 218 298 315 212 205 148 161 165 176 203 230 280 270 238 251 273 289 296 298 296 296 294 287 277 261 238 220 207 208 212 215 214 212 212 214 212 210 208 208 207 204 200 198
162 143 266 267 241 175 180 192 163 192 245 210 249 272 257 260 276 281 285 292 293 290 286 285 284 278 255 233 218 215 215 217 219 213 211 215 213 207 209 212 209 203 201 199
139 122 337 337 357 90 224 213 195 194 202 212 231 270 274 291 292 289 288 291 295 296 297 298 295 286 269 248 230 224 222 224 219 210 212 214 214 211 213 213 208 202 200 198
138 176 202 233 249 249 236 231 198 191 227 246 240 264 283 288 293 302 306 305 303 302 303 305 304 299 284 259 238 230 231 224 216 211 215 218 218 217 217 213 207 202 198 197
133 232 241 253 267 269 249 250 232 220 228 245 266 270 278 287 299 303 306 311 312 314 317 315 309 305 299 280 254 237 236 224 214 215 220 225 222 218 215 211 207 201 198 198
155 229 254 263 254 252 255 250 249 248 244 245 263 273 277 295 303 305 311 315 318 319 318 315 313 310 303 290 272 251 240 226 212 220 227 227 220 217 215 212 206 200 198 195
198 202 243 268 273 291 263 238 237 230 217 216 245 262 310 324 322 318 315 319 317 317 314 311 308 302 296 290 277 263 250 225 216 226 230 224 218 218 215 210 205 203 199 194
185 181 223 280 333 242 247 236 225 234 248 235 251 280 298 297 297 289 282 311 323 319 313 309 305 302 299 292 285 272 258 233 228 232 233 226 219 220 215 209 208 205 198 195
189 175 206 229 254 271 286 268 222 216 267 242 235 275 295 300 313 294 289 323 314 307 301 298 295 293 294 295 293 284 269 248 241 242 238 228 219 219 214 212 210 203 196 195
116 165 193 204 229 256 250 254 220 143 276 251 204 308 315 341 335 309 312 320 315 310 304 301 302 301 300 300 301 288 278 263 254 250 242 229 218 217 218 216 210 202 198 198
143 174 204 222 239 263 260 279 127 211 251 295 307 312 311 301 273 281 297 303 302 301 301 303 306 305 301 304 304 289 283 274 268 259 245 230 220 219 219 215 207 198 196 192
200 206 212 206 224 256 251 166 202 241 288 305 306 301 294 288 287 292 297 300 304 305 305 308 310 308 307 307 302 291 287 284 279 264 248 235 223 217 215 210 203 195 194 192
211 207 210 208 228 248 231 230 262 287 294 296 296 294 292 294 296 301 302 304 306 304 306 307 308 310 311 309 300 292 293 295 288 273 256 240 222 212 206 202 199 195 196 197
235 215 231 254 258 261 268 273 277 280 283 288 291 293 295 295 299 303 304 305 305 303 307 310 314 314 312 312 306 292 293 295 287 275 264 240 220 213 205 203 201 200 201 201
229 233 245 259 271 280 260 260 271 281 288 295 298 300 303 305 304 302 304 304 305 306 306 309 308 306 306 308 306 302 298 297 287 277 265 240 221 212 208 209 210 209 211 207
226 238 252 265 268 274 283 283 287 289 291 297 307 316 315 307 301 303 303 302 302 304 305 307 306 306 307 307 305 305 302 296 286 282 266 241 222 214 211 214 222 226 221 223
Height
1550 1554 1556 1554 1553 1552 1552 1554 1556 1550 1543 1547 1544 1533 1517 1511 1513 1509 1506 1505 1505 1505 1508 1512 1514 1516 1518 1519 1520 1522 1524 1525 1528 1529 1529 1530 1531 1533 1534 1535 1535 1535 1534 1533
1553 1555 1548 1547 1549 1551 1552 1554 1554 1547 1542 1545 1540 1528 1511 1503 1501 1497 1496 1495 1496 1498 1500 1503 1506 1508 1509 1511 1512 1514 1515 1517 1519 1520 1522 1524 1525 1526 1528 1528 1528 1528 1527 1526
1552 1548 1544 1546 1548 1550 1551 1553 1549 1547 1542 1542 1542 1524 1508 1497 1493 1490 1488 1487 1488 1490 1492 1496 1498 1500 1502 1503 1504 1506 1507 1509 1511 1513 1515 1516 1516 1516 1518 1519 1520 1521 1520 1519
1548 1545 1544 1545 1547 1548 1553 1545 1545 1544 1548 1550 1544 1540 1507 1499 1492 1485 1481 1480 1481 1483 1486 1488 1490 1492 1494 1495 1498 1499 1500 1502 1503 1504 1504 1504 1505 1505 1507 1511 1513 1513 1513 1512
1547 1543 1544 1546 1544 1544 1545 1542 1544 1545 1548 1552 1547 1547 1514 1503 1493 1480 1474 1473 1475 1477 1480 1482 1484 1486 1488 1490 1491 1492 1493 1494 1494 1495 1495 1496 1496 1497 1500 1503 1504 1505 1505 1505
1543 1540 1540 1541 1541 1542 1543 1545 1549 1554 1556 1556 1545 1550 1525 1503 1488 1479 1472 1470 1471 1473 1475 1476 1478 1480 1481 1483 1483 1484 1485 1485 1485 1485 1485 1486 1486 1488 1490 1492 1495 1496 1497 1497
1545 1541 1539 1539 1541 1543 1544 1551 1559 1554 1556 1550 1541 1543 1521 1488 1481 1478 1474 1470 1469 1469 1470 1471 1472 1473 1474 1475 1476 1477 1477 1477 1477 1476 1476 1476 1477 1479 1480 1483 1486 1488 1488 1488
1551 1549 1539 1539 1540 1543 1546 1549 1558 1558 1558 1549 1539 1536 1507 1481 1476 1474 1472 1469 1467 1466 1466 1466 1467 1468 1468 1469 1469 1469 1469 1469 1469 1468 1468 1468 1469 1470 1471 1474 1476 1478 1479 1480
1550 1548 1538 1538 1538 1541 1546 1550 1549 1556 1555 1557 1541 1526 1504 1479 1474 1471 1469 1467 1465 1464 1463 1462 1463 1463 1463 1463 1463 1463 1462 1462 1461 1461 1460 1460 1460 1460 1461 1464 1466 1468 1470 1472
1543 1547 1540 1539 1540 1540 1542 1547 1555 1555 1556 1554 1541 1529 1511 1487 1477 1471 1468 1466 1463 1461 1460 1459 1458 1458 1457 1457 1456 1456 1455 1454 1454 1453 1452 1451 1451 1451 1452 1454 1456 1458 1461 1462
1541 1546 1543 1541 1541 1540 1545 1547 1548 1554 1557 1555 1549 1523 1494 1486 1476 1473 1468 1464 1462 1460 1457 1455 1453 1452 1450 1449 1449 1448 1447 1446 1445 1444 1443 1442 1442 1442 1443 1443 1445 1448 1451 1452
1542 1549 1549 1541 1536 1536 1539 1541 1546 1550 1547 1554 1551 1517 1483 1478 1472 1470 1466 1462 1460 1457 1453 1450 1447 1445 1442 1441 1440 1440 1439 1438 1437 1436 1434 1433 1432 1432 1432 1432 1434 1437 1439 1442
1543 1548 1550 1543 1542 1540 1539 1538 1541 1541 1544 1550 1546 1507 1478 1474 1469 1466 1464 1460 1456 1451 1447 1444 1441 1438 1436 1434 1433 1432 1431 1430 1429 1427 1425 1423 1422 1421 1420 1421 1423 1426 1429 1431
1539 1545 1547 1544 1536 1532 1535 1534 1537 1539 1539 1534 1521 1496 1477 1471 1467 1463 1459 1456 1451 1447 1443 1439 1436 1434 1432 1430 1428 1427 1425 1424 1422 1419 1416 1413 1411 1411 1411 1411 1413 1415 1418 1421
1539 1544 1542 1536 1532 1533 1531 1529 1527 1528 1520 1516 1495 1487 1473 1466 1466 1462 1458 1453 1448 1444 1441 1437 1435 1432 1429 1427 1424 1422 1420 1417 1414 1411 1407 1404 1402 1401 1400 1400 1402 1405 1407 1411
1538 1541 1538 1533 1527 1527 1526 1520 1514 1508 1504 1500 1491 1481 1467 1467 1464 1459 1455 1452 1447 1443 1440 1437 1433 1430 1427 1424 1421 1417 1414 1411 1407 1402 1399 1396 1393 1391 1390 1390 1392 1395 1397 1401
1537 1539 1537 1530 1523 1523 1520 1503 1497 1495 1490 1489 1484 1473 1466 1466 1461 1457 1454 1451 1447 1444 1440 1436 1432 1428 1424 1420 1416 1412 1408 1404 1399 1395 1390 1387 1384 1381 1379 1380 1381 1384 1387 1391
1530 1535 1536 1535 1525 1523 1495 1485 1484 1483 1478 1476 1473 1470 1468 1466 1460 1456 1453 1450 1446 1442 1438 1433 1428 1424 1419 1415 1411 1406 1401 1396 1391 1387 1382 1378 1374 1371 1370 1369 1370 1373 1377 1381
1521 1527 1532 1536 1529 1507 1495 1482 1478 1479 1475 1468 1468 1467 1465 1461 1455 1451 1450 1447 1444 1439 1435 1429 1424 1419 1414 1409 1404 1398 1393 1388 1383 1378 1374 1370 1366 1362 1360 1359 1359 1363 1367 1371
1520 1522 1528 1531 1529 1510 1486 1474 1471 1474 1475 1465 1465 1464 1462 1457 1456 1448 1444 1440 1436 1433 1428 1423 1418 1413 1407 1402 1396 1390 1385 1380 1375 1370 1366 1362 1357 1354 1351 1350 1351 1353 1357 1361
1522 1525 1527 1524 1519 1495 1478 1473 1473 1480 1472 1464 1462 1460 1458 1455 1453 1445 1440 1435 1431 1426 1421 1416 1411 1406 1401 1395 1389 1383 1378 1373 1368 1362 1357 1352 1348 1345 1343 1342 1342 1344 1348 1353
1512 1517 1520 1517 1515 1496 1470 1472 1473 1468 1462 1461 1458 1456 1452 1448 1443 1438 1433 1428 1423 1418 1413 1409 1403 1398 1394 1389 1382 1375 1370 1365 1359 1354 1348 1344 1340 1337 1335 1334 1334 1336 1340 1344
1503 1498 1496 1495 1483 1470 1467 1466 1464 1463 1459 1456 1453 1450 1447 1441 1436 1432 1427 1422 1417 1412 1407 1402 1396 1390 1386 1382 1375 1368 1363 1357 1351 1346 1340 1336 1332 1329 1327 1326 1327 1328 1331 1335
1489 1486 1486 1481 1468 1464 1461 1460 1459 1458 1454 1450 1448 1444 1440 1435 1430 1425 1421 1416 1411 1406 1401 1395 1389 1383 1378 1374 1368 1363 1356 1350 1344 1338 1333 1328 1324 1321 1320 1319 1319 1320 1322 1326
1482 1481 1478 1470 1461 1457 1454 1454 1452 1450 1448 1444 1441 1438 1434 1429 1425 1420 1415 1411 1405 1400 1395 1389 1383 1376 1371 1366 1361 1356 1349 1343 1337 1331 1326 1321 1317 1314 1312 1312 1312 1312 1315 1319
1470 1472 1470 1458 1454 1454 1447 1448 1446 1443 1439 1437 1434 1431 1429 1425 1421 1416 1411 1406 1400 1394 1388 1382 1376 1370 1364 1359 1353 1349 1343 1337 1330 1324 1319 1314 1310 1307 1306 1305 1305 1306 1309 1312